Regional Weather Roundup
Issued by NWS Midland/Odessa, TX

Skip options and go directly to product.
Home | Oldest Version | Next Version | Current Version | All | Text Only | Save Text | Print | Product List | Glossary On

Skip product version selection by date and time.   
071
ASUS44 KMAF 251402
RWRMAF
MIDLAND AREA WEATHER ROUNDUP
NATIONAL WEATHER SERVICE MIDLAND TX
800 AM CST TUE NOV 25 2014

...IN SOUTHWEST TEXAS AND SOUTHEAST NEW MEXICO...

CITY           SKY/WX    TMP DP  RH WIND       PRES   REMARKS
ALPINE         CLEAR     36  12  37 NW12      30.44R WCI  28
ANDREWS        FAIR      31  20  64 NW6       30.37R WCI  25
ARTESIA        NOT AVBL
BIG SPRING     CLEAR     38  25  58 NW7       30.36R WCI  33
CARLSBAD       CLEAR     34  19  54 W12       30.41R WCI  25
DRYDEN           N/A     48  17  29 NW15      30.31R
FORT STOCKTON  CLEAR     34  18  52 W12       30.40R WCI  25
GUAD PASS      NOT AVBL
HOBBS          CLEAR     27  18  69 NW8       30.37R WCI  18
MARFA          CLEAR     30  12  47 N8        30.40R WCI  23
MIDLAND AIRPK  CLEAR     35  24  64 NW8       30.36R WCI  28
MIDLAND INTL   CLEAR     34  20  56 NW10      30.35R WCI  26
ODESSA         CLEAR     34  19  54 N10       30.36R WCI  26
PECOS          CLEAR     35  17  47 NW9       30.41R WCI  27
PRESIDIO       FAIR      35  14  42 CALM      30.39R
SEMINOLE       CLEAR     29  19  67 NW9       30.37R WCI  20
SNYDER         CLEAR     34  25  68 N12       30.33R WCI  26
WINK           CLEAR     34  17  50 N8        30.38R WCI  27
$$
...OTHER STATIONS IN TEXAS...

CITY           SKY/WX    TMP DP  RH WIND       PRES   REMARKS
ABILENE        CLEAR     35  27  72 W7        30.34R WCI  29
AMARILLO       CLEAR     26  19  74 W3        30.30R
AUSTIN         PTCLDY    40  33  76 W5        30.31R WCI  37
BROWNSVILLE    CLOUDY    59  47  64 N12       30.23R
CORPUS CHRISTI CLOUDY    52  40  63 N7        30.27R
DALLAS FTW     PTCLDY    41  32  70 NW6       30.28R WCI  37
DEL RIO        CLEAR     36  32  85 NW5       30.34R WCI  32
EL PASO        CLEAR     34  13  41 CALM      30.42R
HOUSTON INT    CLOUDY    47  36  65 N6        30.26R
LUBBOCK        CLEAR     26  19  74 W6        30.33R WCI  19
SAN ANGELO     CLEAR     31  26  82 NW9       30.35R WCI  23
SAN ANTONIO    CLEAR     41  31  67 NW8       30.30R WCI  36
WACO           CLEAR     34  32  92 CALM      30.30R
WICHITA FALLS  NOT AVBL
$$
...OTHER LOCATIONS IN NEW MEXICO...

CITY           SKY/WX    TMP DP  RH WIND       PRES   REMARKS
ALAMAGORDO     CLEAR     23  14  68 SE5       30.42R WCI  17
ALBUQUERQUE    PTCLDY    18  10  71 SE5       30.43S WCI  11
CANNON AFB     CLEAR     26  18  71 W9        30.33R WCI  17
CLOVIS         CLEAR     21  16  79 W9        30.33R WCI  11
HOLLOMAN AFB   CLEAR     24  12  60 CALM      30.42R
ROSWELL        CLEAR     28  17  63 N5        30.39R WCI  23
RUIDOSO        CLEAR     19   9  63 W9        30.36R WCI   9
SANTA FE       PTCLDY    10   5  80 NW7       30.36R WCI  -1
TRUTH OR CONSE CLEAR     30   6  36 CALM      30.42R
TUCUMCARI      CLEAR     23  18  81 SW7       30.31R WCI  15
$$

USA.gov is the U.S. government's official web portal to all federal, state and local government web resources and services.